sat.trackr.live / text

‹ back to catalog

STARLINK-35977

NORAD 66604 · 2025-270S

PAYLOAD ACTIVE UNKNOWN

§ Identity

Operator
Country
US
Launch date
2025-11-22
Launch site
AFETR
Launch vehicle
Mass (kg)
RCS (m²)

Purposes: comms

External: N2YO · Heavens-Above · Gunter

§ Orbital elements

Epoch: 2026-05-24T22:49:09.927840Z

Period
94.27 min
Inclination
43.0038°
Eccentricity
0.0001600
Mean motion
15.27587946 rev/d
Perigee alt
481.9 km
Apogee alt
484.1 km
Semi-major
6,861.2 km
B*
5.9965e-4
RAAN
345.1004°
Arg perigee
264.0945°
Mean anomaly
95.9725°
Rev number
2,937

§ Raw data

STARLINK-359771 66604U 25270S   26144.95080935  .00016279  00000+0  59965-3 0  99952 66604  43.0038 345.1004 0001600 264.0945  95.9725 15.27587946 29378

JSON: /api/v1/satellites/66604 · /tle

For live sub-satellite position, see the globe view (requires WebGL).

§ Visibility from observer

Set your observer location to see the next 7 days of passes ≥ 10°. The values pass through the URL so the page stays shareable.

No JS? Fill the form by hand. The geolocation button needs JavaScript.